Terug naar catalogus

STARLINK-32540

ActiefCommunicatieVLEO
NORAD 61723·PAYLOAD·🇺🇸 United States

Gelanceerd Oct 30, 2024 vanaf Cape Canaveral Space Force Station

Loading…

Volgende Passages (komende 24 uur)

TLE

VersSource: CelesTrak SupGP

Epoch: Sep 15, 2026, 03:16 UTC

1 61723C 24196S   26258.13659722 -.00029853  00000+0 -88180-3 0  2583
2 61723  53.1582 262.4350 0001294  87.9879 230.6061 15.34412995    13

Volg STARLINK-32540 in realtime met AllMySat

Download on the App Store